TimeEEST,TemperatureF,Dew PointF,Humidity,Sea Level PressureIn,VisibilityMPH,Wind Direction,Wind SpeedMPH,Gust SpeedMPH,PrecipitationIn,Events,Conditions,WindDirDegrees,DateUTC
12:20 AM,78.8,66.2,65,29.80,-9999.0,West,9.2,-,N/A,,Clear,270,2013-08-17 21:20:00
12:50 AM,77.0,68.0,74,29.80,-9999.0,West,13.8,-,N/A,,Clear,270,2013-08-17 21:50:00
1:20 AM,77.0,68.0,74,29.80,-9999.0,WNW,11.5,-,N/A,,Clear,290,2013-08-17 22:20:00
1:50 AM,77.0,66.2,69,29.80,-9999.0,NW,11.5,-,N/A,,Clear,310,2013-08-17 22:50:00
2:20 AM,78.8,66.2,65,29.80,-9999.0,NW,13.8,-,N/A,,Clear,320,2013-08-17 23:20:00
2:50 AM,78.8,66.2,65,29.80,-9999.0,NW,6.9,-,N/A,,Clear,320,2013-08-17 23:50:00
3:20 AM,77.0,66.2,69,29.80,-9999.0,NW,11.5,-,N/A,,Clear,320,2013-08-18 00:20:00
3:50 AM,77.0,64.4,65,29.80,-9999.0,NNW,13.8,-,N/A,,Clear,330,2013-08-18 00:50:00
4:20 AM,77.0,66.2,69,29.80,-9999.0,NNW,11.5,-,N/A,,Clear,330,2013-08-18 01:20:00
4:50 AM,77.0,68.0,74,29.80,-9999.0,NNW,13.8,-,N/A,,Clear,330,2013-08-18 01:50:00
5:20 AM,77.0,66.2,69,29.80,-9999.0,NNW,18.4,-,N/A,,Clear,330,2013-08-18 02:20:00
5:50 AM,75.2,66.2,73,29.80,-9999.0,NNW,18.4,-,N/A,,Clear,330,2013-08-18 02:50:00
6:20 AM,75.2,66.2,73,29.80,-9999.0,NW,17.3,-,N/A,,Clear,320,2013-08-18 03:20:00
6:50 AM,75.2,68.0,78,29.83,-9999.0,NNW,13.8,-,N/A,,Clear,330,2013-08-18 03:50:00
7:20 AM,75.2,68.0,78,29.83,-9999.0,NNW,13.8,-,N/A,,Clear,330,2013-08-18 04:20:00
7:50 AM,77.0,68.0,74,29.83,-9999.0,NNW,17.3,-,N/A,,Clear,330,2013-08-18 04:50:00
8:20 AM,77.0,68.0,74,29.83,-9999.0,NNW,13.8,-,N/A,,Clear,330,2013-08-18 05:20:00
8:50 AM,78.8,68.0,69,29.83,-9999.0,NNW,17.3,-,N/A,,Clear,330,2013-08-18 05:50:00
9:20 AM,78.8,66.2,65,29.86,-9999.0,NNW,17.3,-,N/A,,Clear,340,2013-08-18 06:20:00
9:50 AM,78.8,66.2,65,29.86,-9999.0,NNW,18.4,-,N/A,,Clear,330,2013-08-18 06:50:00
10:20 AM,80.6,66.2,61,29.86,-9999.0,NNW,16.1,-,N/A,,Clear,330,2013-08-18 07:20:00
10:50 AM,82.4,66.2,58,29.86,-9999.0,NNW,16.1,-,N/A,,Clear,340,2013-08-18 07:50:00
11:20 AM,82.4,66.2,58,29.86,-9999.0,NNW,18.4,-,N/A,,Clear,340,2013-08-18 08:20:00
11:50 AM,82.4,66.2,58,29.86,-9999.0,NNW,18.4,-,N/A,,Clear,330,2013-08-18 08:50:00
12:20 PM,82.4,66.2,58,29.86,-9999.0,NNW,20.7,-,N/A,,Clear,340,2013-08-18 09:20:00
12:50 PM,86.0,64.4,48,29.86,-9999.0,NNW,20.7,-,N/A,,Clear,340,2013-08-18 09:50:00
1:20 PM,84.2,64.4,51,29.86,-9999.0,North,16.1,-,N/A,,Clear,360,2013-08-18 10:20:00
1:50 PM,84.2,66.2,55,29.86,-9999.0,North,18.4,-,N/A,,Clear,350,2013-08-18 10:50:00
2:20 PM,84.2,62.6,48,29.86,-9999.0,NW,24.2,-,N/A,,Clear,320,2013-08-18 11:20:00
2:50 PM,84.2,64.4,51,29.86,-9999.0,NNW,23.0,-,N/A,,Clear,330,2013-08-18 11:50:00
3:20 PM,84.2,62.6,48,29.86,-9999.0,NNW,25.3,-,N/A,,Clear,330,2013-08-18 12:20:00
3:50 PM,84.2,59.0,42,29.83,-9999.0,NNW,27.6,-,N/A,,Clear,340,2013-08-18 12:50:00
4:20 PM,84.2,59.0,42,29.86,-9999.0,NNW,27.6,-,N/A,,Clear,330,2013-08-18 13:20:00
4:50 PM,84.2,60.8,45,29.86,-9999.0,NNW,26.5,-,N/A,,Clear,330,2013-08-18 13:50:00
5:20 PM,82.4,60.8,48,29.83,-9999.0,NW,26.5,-,N/A,,Clear,320,2013-08-18 14:20:00
5:50 PM,82.4,59.0,45,29.83,-9999.0,NW,26.5,-,N/A,,Clear,320,2013-08-18 14:50:00
6:20 PM,80.6,57.2,45,29.83,-9999.0,NNW,28.8,-,N/A,,Clear,330,2013-08-18 15:20:00
6:50 PM,80.6,55.4,42,29.83,-9999.0,NW,27.6,-,N/A,,Clear,320,2013-08-18 15:50:00
7:20 PM,80.6,55.4,42,29.83,-9999.0,NW,26.5,-,N/A,,Clear,320,2013-08-18 16:20:00
7:50 PM,78.8,57.2,47,29.86,-9999.0,NW,24.2,-,N/A,,Clear,320,2013-08-18 16:50:00
8:20 PM,78.8,57.2,47,29.86,-9999.0,NW,23.0,-,N/A,,Clear,320,2013-08-18 17:20:00
8:50 PM,78.8,57.2,47,29.86,-9999.0,NW,26.5,-,N/A,,Clear,320,2013-08-18 17:50:00
9:20 PM,78.8,57.2,47,29.86,-9999.0,NW,25.3,-,N/A,,Clear,320,2013-08-18 18:20:00
9:50 PM,78.8,55.4,44,29.86,-9999.0,NW,25.3,-,N/A,,Clear,320,2013-08-18 18:50:00
10:20 PM,78.8,57.2,47,29.86,-9999.0,NNW,23.0,-,N/A,,Clear,330,2013-08-18 19:20:00
10:50 PM,78.8,57.2,47,29.86,-9999.0,NNW,18.4,-,N/A,,Clear,330,2013-08-18 19:50:00
11:20 PM,78.8,55.4,44,29.86,-9999.0,NW,16.1,-,N/A,,Clear,320,2013-08-18 20:20:00
11:50 PM,78.8,55.4,44,29.86,-9999.0,NW,17.3,-,N/A,,Clear,310,2013-08-18 20:50:00